BSAT-4B

Last updated on Mon Oct 27 2025 00:02:50 GMT+0000 (Coordinated Universal Time)

1 46112U 20056A 25299.52719167 -.00000338 00000+0 00000+0 0 9995 2 46112 0.0560 103.1093 0003192 74.0112 157.6841 1.00268511 19044
UTC large
Height (km)
Speed (km/s)
/
Latitude / Longitude
Inclination (degrees)
Orbital Period (minutes)
Azimuth
Elevation
Range (km)
Doppler Factor

Next 0 passes for location: London (51.5072 / 0.1276)

Sorry there are no passes over London.